Terminal Aerodrome Forecast
Issued by NWS Goodland, KS

Home | Current Version | Previous Version | Text Only | Print | Product List | Glossary On
Versions: 1 2 3 4 5 6 7 8 9 10 11 12 13 14 15 16 17 18 19 20
000
FTUS43 KGLD 011405 AAB
TAFGLD
TAF AMD
KGLD 011405Z 0114/0212 35014G22KT P6SM SCT250
     FM020000 04008KT P6SM BKN250
     FM020200 07008KT P6SM VCTS SCT070CB BKN200
     FM020800 VRB05KT P6SM BKN100=

USA.gov is the U.S. government's official web portal to all federal, state and local government web resources and services.